Location: Caltech
(34.1382°N, 118.1253°W)
Time: 10:00:31
(UTC-07:00)

A-11 Canister half - All Passes

Search period start: 26 April 2018 00:00
Search period end: 06 May 2018 00:00
Orbit: 1517 x 1683 km, 47.2° (Epoch: 25 April)

Date Brightness Start Highest point End Pass type
(mag) Time Alt. Az. Time Alt. Az. Time Alt. Az.
26 Apr - 03:29:48 10° S 03:36:40 24° SE 03:43:37 10° ENE visible
26 Apr - 05:31:15 10° SW 05:40:34 86° SE 05:50:13 10° NE visible
26 Apr - 07:37:25 10° W 07:46:20 44° NNW 07:55:34 10° NE daylight
26 Apr - 09:44:31 10° WNW 09:53:26 39° N 10:02:37 10° ENE daylight
26 Apr - 11:50:00 10° NW 11:59:51 72° NNE 12:09:58 10° ESE daylight
26 Apr - 13:55:29 10° WNW 14:04:31 40° SW 14:13:42 10° SSE daylight
27 Apr - 03:07:22 10° S 03:13:51 22° SE 03:20:26 10° E visible
27 Apr - 05:08:23 10° SW 05:17:40 81° SE 05:27:16 10° NE visible
27 Apr - 07:14:23 10° W 07:23:19 45° NNW 07:32:35 10° NE daylight
27 Apr - 09:21:32 10° WNW 09:30:23 39° N 09:39:31 10° ENE daylight
27 Apr - 11:27:04 10° NW 11:36:53 69° NNE 11:46:56 10° ESE daylight
27 Apr - 13:32:28 10° WNW 13:41:38 43° SW 13:50:58 10° SSE daylight
28 Apr - 02:44:58 10° SSE 02:51:03 20° SE 02:57:11 10° E visible
28 Apr - 04:45:32 10° SW 04:54:47 77° SE 05:04:19 10° NE visible
28 Apr - 06:51:22 10° W 07:00:19 47° NNW 07:09:35 10° NE daylight
28 Apr - 08:58:33 10° WNW 09:07:20 38° N 09:16:25 10° ENE daylight
28 Apr - 11:04:10 10° NW 11:13:54 66° NNE 11:23:55 10° ESE daylight
28 Apr - 13:09:28 10° WNW 13:18:45 46° SW 13:28:13 10° SSE daylight
29 Apr - 02:22:39 10° SSE 02:28:15 18° SE 02:33:52 10° E visible
29 Apr - 04:22:42 10° SW 04:31:54 73° SE 04:41:21 10° ENE visible
29 Apr - 06:28:21 10° W 06:37:19 48° NNW 06:46:37 10° NE daylight
29 Apr - 08:35:34 10° WNW 08:44:18 38° N 08:53:18 10° ENE daylight
29 Apr - 10:41:16 10° NW 10:50:55 63° NNE 11:00:53 10° ESE daylight
29 Apr - 12:46:30 10° WNW 12:55:51 50° SW 13:05:27 10° SSE daylight
30 Apr - 02:00:24 10° SSE 02:05:26 16° ESE 02:10:30 10° E visible
30 Apr - 03:59:53 10° SW 04:09:01 69° SE 04:18:25 10° ENE visible
30 Apr - 06:05:20 10° W 06:14:20 50° NNW 06:23:38 10° NE daylight
30 Apr - 08:12:34 10° WNW 08:21:15 38° N 08:30:13 10° ENE daylight
30 Apr - 10:18:21 10° NW 10:27:57 60° NNE 10:37:50 10° ESE daylight
30 Apr - 12:23:31 10° WNW 12:32:58 53° SW 12:42:39 10° SSE daylight
30 Apr - 14:34:38 10° WSW 14:36:32 11° WSW 14:38:26 10° SW daylight
01 May - 01:38:17 10° SSE 01:42:38 14° ESE 01:47:00 10° E visible
01 May - 03:37:04 10° SW 03:46:10 64° SE 03:55:27 10° ENE visible
01 May - 05:42:20 10° W 05:51:21 52° NNW 06:00:40 10° NE daylight
01 May - 07:49:34 10° WNW 07:58:13 37° N 08:07:08 10° ENE daylight
01 May - 09:55:26 10° NW 10:04:57 58° NNE 10:14:46 10° ESE daylight
01 May - 12:00:33 10° WNW 12:10:04 57° SW 12:19:50 10° SSE daylight
01 May - 14:10:17 10° W 14:13:42 12° WSW 14:17:07 10° SW daylight
02 May - 01:16:20 10° SE 01:19:50 13° ESE 01:23:20 10° E visible
02 May - 03:14:16 10° SSW 03:23:17 60° SE 03:32:29 10° ENE visible
02 May - 05:19:20 10° W 05:28:22 54° NNW 05:37:43 10° NE visible
02 May - 07:26:34 10° WNW 07:35:10 37° N 07:44:03 10° ENE daylight
02 May - 09:32:31 10° NW 09:41:58 55° NNE 09:51:42 10° ESE daylight
02 May - 11:37:36 10° WNW 11:47:10 60° SW 11:57:00 10° SSE daylight
02 May - 13:46:29 10° W 13:50:51 14° WSW 13:55:16 10° SSW daylight
03 May - 00:54:47 10° SE 00:57:02 11° ESE 00:59:17 10° ESE visible
03 May - 02:51:29 10° SSW 03:00:26 56° SE 03:09:31 10° ENE visible
03 May - 04:56:20 10° WSW 05:05:24 56° NNW 05:14:46 10° NE visible
03 May - 07:03:33 10° WNW 07:12:08 37° N 07:20:58 10° ENE daylight
03 May - 09:09:36 10° NW 09:18:58 53° NNE 09:28:38 10° E daylight
03 May - 11:14:40 10° WNW 11:24:16 64° SW 11:34:09 10° SE daylight
03 May - 13:22:56 10° W 13:28:01 15° WSW 13:33:11 10° SSW daylight
04 May - 02:28:45 10° SSW 02:37:35 53° SE 02:46:33 10° ENE visible
04 May - 04:33:21 10° WSW 04:42:26 58° NNW 04:51:49 10° NE visible
04 May - 06:40:33 10° WNW 06:49:06 37° N 06:57:54 10° ENE daylight
04 May - 08:46:41 10° NW 08:55:59 51° NNE 09:05:34 10° E daylight
04 May - 10:51:43 10° WNW 11:01:22 68° SW 11:11:17 10° SE daylight
04 May - 12:59:30 10° W 13:05:11 17° WSW 13:10:57 10° SSW daylight
05 May - 02:05:59 10° SSW 02:14:44 49° SE 02:23:34 10° ENE visible
05 May - 04:10:22 10° WSW 04:19:30 60° NNW 04:28:52 10° NE visible
05 May - 06:17:32 10° WNW 06:26:03 37° N 06:34:50 10° ENE daylight
05 May - 08:23:46 10° NW 08:32:59 49° NNE 08:42:29 10° E daylight
05 May - 10:28:47 10° WNW 10:38:27 72° SW 10:48:24 10° SE daylight
05 May - 12:36:09 10° W 12:42:20 19° SW 12:48:38 10° SSW daylight
